This is the latest recevied weather packets stored in our database for station/object AB1AU. If no packets are shown the sender has not sent any weather packets the latest 10 day(s).
| Time | Temp. | Humidity | Pressure | Rain* | Wind** | Luminosity | Snow |
|---|---|---|---|---|---|---|---|
| 1788627970 | 20.56° C | 62% | 1012.5 hPa | 0 mm | - | 66 W/m² | - |
| 1788627666 | 20° C | 61% | 1012.5 hPa | 0 mm | - | 79 W/m² | - |
| 1788627360 | 20.56° C | 62% | 1012.7 hPa | 0 mm | - | 117 W/m² | - |
| 1788627055 | 20.56° C | 60% | 1012.5 hPa | 0 mm | - | 82 W/m² | - |
| 1788626750 | 20.56° C | 61% | 1012.6 hPa | 0 mm | - | 85 W/m² | - |
| 1788626450 | 20° C | 65% | 1012.5 hPa | 0 mm | - | 138 W/m² | - |
| 1788626146 | 20° C | 65% | 1012.7 hPa | 0 mm | - | 76 W/m² | - |
| 1788625842 | 20.56° C | 63% | 1012.5 hPa | 0 mm | - | 59 W/m² | - |
| 1788625538 | 20.56° C | 64% | 1012.6 hPa | 0 mm | - | 88 W/m² | - |
| 1788625232 | 20.56° C | 64% | 1012.5 hPa | 0 mm | - | 114 W/m² | - |
| 1788624932 | 20° C | 65% | 1012.6 hPa | 0 mm | - | 48 W/m² | - |
| 1788624630 | 20° C | 65% | 1012.6 hPa | 0 mm | - | 21 W/m² | - |
| 1788624328 | 20.56° C | 65% | 1012.5 hPa | 0 mm | - | 61 W/m² | - |
| 1788624029 | 20° C | 66% | 1012.6 hPa | 0 mm | - | 44 W/m² | - |
| 1788623728 | 20° C | 66% | 1012.6 hPa | 0 mm | - | 55 W/m² | - |
| 1788623427 | 20° C | 66% | 1012.7 hPa | 0 mm | - | 56 W/m² | - |
| 1788623122 | 20° C | 66% | 1012.6 hPa | 0 mm | - | 107 W/m² | - |
| 1788622818 | 20° C | 67% | 1012.7 hPa | 0 mm | - | 87 W/m² | - |
| 1788622514 | 19.44° C | 67% | 1012.9 hPa | 0 mm | - | 103 W/m² | - |
| 1788622214 | 19.44° C | 68% | 1012.6 hPa | 0 mm | - | 113 W/m² | - |
| 1788621914 | 18.89° C | 68% | 1012.8 hPa | 0 mm | - | 104 W/m² | - |
| 1788621609 | 18.89° C | 68% | 1012.6 hPa | 0 mm | - | 98 W/m² | - |
| 1788621304 | 18.89° C | 68% | 1012.7 hPa | 0 mm | - | 55 W/m² | - |
| 1788620999 | 18.89° C | 68% | 1012.6 hPa | 0 mm | - | 76 W/m² | - |
| 1788620711 | 18.89° C | 69% | 1012.6 hPa | 0 mm | - | 111 W/m² | - |
* Rain latest hour (hover to see other rain measurements)
** Current wind speed in m/s (hover to see current wind gust speed)